Regional Weather Roundup
Issued by NWS Grand Forks, ND

Home | Current Version | Previous Version | Graphics & Text | Print | Product List | Glossary On
Versions: 1 2 3 4 5 6 7 8 9 10 11 12 13 14 15 16 17 18 19 20 21 22 23 24 25 26 27 28 29 30 31 32 33 34 35 36 37 38 39 40 41 42 43 44 45 46 47 48 49 50
000
ASUS43 KFGF 272131
RWRFGF
PRAIRIE TO PINES  WEATHER ROUNDUP
NATIONAL WEATHER SERVICE EASTERN NORTH DAKOTA/GRAND FORKS ND
400 PM CDT THU JUL 27 2017

 **SATELLITE DATA USED TO AUGMENT SKY COVER AT AUTOMATED STATIONS**
 *****  WEATHER ACROSS EASTERN NORTH DAKOTA  *****

CITY           SKY/WX    TMP DP  RH WIND       PRES   REMARKS
GRAND FORKS    PTSUNNY   84  60  44 VRB5      30.07F
GRAND FRKS AFB FAIR      83  56  39 SW6       30.09F
DEVILS LAKE    FAIR      81  55  40 SE7       30.10F
FARGO          FAIR      84  58  40 N6        30.08F
WAHPETON ARPT  FAIR      81  54  39 S5        30.08F
$$

 ***** WEATHER ACROSS CENTRAL AND WESTERN NORTH DAKOTA  *****

CITY           SKY/WX    TMP DP  RH WIND       PRES   REMARKS
BISMARCK       FAIR      83  56  39 E9        30.07F
MINOT          FAIR      83  57  41 VRB6      30.06F
JAMESTOWN      FAIR      82  56  40 E8        30.09F
MINOT AFB      FAIR      81  57  44 E12       30.05F
GARRISON         N/A     72  63  73 SE6       30.08R
WILLISTON      FAIR      71  63  75 E7        30.04R
DICKINSON      PTSUNNY   77  58  51 NE16G28   30.05F
HETTINGER      CLOUDY    82  51  34 S17G25    30.09R
$$

 *****  OTHER AIRPORT OBSERVATIONS IN OUR AREA  *****

CITY           SKY/WX    TMP DP  RH WIND       PRES   REMARKS
WALHALLA       NOT AVBL
GRAFTON AIRPOR FAIR      82  59  44 VRB5      30.08F
VALLEY CITY AR FAIR      81  59  47 SE7       30.11F
CANDO          NOT AVBL
CAVALIER APRT  FAIR      82  63  51 NE5       30.07F
GWINNER        CLEAR     81  59  47 CALM      30.09F
ROLLA            N/A     77  57  50 SE8       30.12S
 ***** THE ABOVE OBSERVATIONS ARE NON NWS ARE NOT QUALITY
       CONTROLLED AND MAY MIS-REPORT RAIN FOR SNOW...
$$

  *****  WEATHER ACROSS NORTHERN MINNESOTA  *****

CITY           SKY/WX    TMP DP  RH WIND       PRES   REMARKS
FLAG ISLAND    FAIR      82  63  51 CALM      30.07F
WARROAD        FAIR      70  64  83 W3        30.10R
ROSEAU         FAIR      82  64  54 W7        30.08S
HALLOCK        FAIR      84  55  37 W7        30.06F
THF RVR FALLS  FAIR      80  60  50 NW9       30.10F
BAUDETTE       FAIR      83  58  42 NW9       30.08F
WASKISH        FAIR      79  63  57 W6        30.10S
CROOKSTON      FAIR      81  61  50 SW6       30.08F
STEPHEN NDAWN    N/A     82  61  47 NW6         N/A
GREENBUSH NDAW   N/A     84  61  45 W3          N/A
$$
  *****  WEATHER ACROSS CENTRAL AND WEST MINNESOTA  *****

CITY           SKY/WX    TMP DP  RH WIND       PRES   REMARKS
FOSSTON        FAIR      81  57  44 NW3       30.11S
BEMIDJI        FAIR      80  56  42 NE9       30.10S
PARK RAPIDS    FAIR      82  54  37 VRB7      30.09F
ELBOW LAKE     FAIR      79  59  49 N3        30.09F HAZE
WADENA         FAIR      81  57  44 NW6       30.08F
DETROIT LAKES  FAIR      79  59  50 W6        30.11F
MOORHEAD       FAIR      82  57  42 NW5       30.08F
FERGUS FALLS   FAIR      81  61  50 CALM      30.06F
MORRIS MN      FAIR      84  55  37 E5        30.08F
STAPLES        PTSUNNY   81  54  39 N3        30.08F
$$
  *****  WEATHER ELSEWHERE ACROSS MINNESOTA  *****

CITY           SKY/WX    TMP DP  RH WIND       PRES   REMARKS
DULUTH         FAIR      75  61  61 SE8       30.09F
INTRNTL FALLS  FAIR      81  54  39 CALM      30.07F
ELY            CLOUDY    79  54  41 CALM      30.08S
CLOQUET        FAIR      75  57  53 SE5       30.08F
WHEATON        FAIR      82  55  39 N6        30.09F
BRAINERD       FAIR      80  58  46 NW7       30.09F
HIBBING        FAIR      80  50  34 N6        30.08F
ALEXANDRIA     FAIR      80  59  48 N7        30.11F
SAINT CLOUD    FAIR      83  59  44 NW5       30.07F
MINNEAPOLIS    PTSUNNY   83  57  41 N10       30.05F
$$

  *****  WEATHER ACROSS SOUTH DAKOTA  *****

CITY           SKY/WX    TMP DP  RH WIND       PRES   REMARKS
SIOUX FALLS    FAIR      83  63  50 N12       30.08F
BROOKINGS      FAIR      80  59  48 VRB5      30.10F
WATERTOWN      PTSUNNY   79  58  48 E5        30.10F
HURON          FAIR      83  60  45 E7        30.07F
SISSETON         N/A     81  60  48 NE6       30.08F
ABERDEEN       FAIR      83  59  44 NE7       30.09F
MITCHELL       FAIR      83  61  47 CALM      30.08F
PIERRE         FAIR      88  54  31 E10G21    30.05F
MOBRIDGE       FAIR      84  61  45 S9        30.05F
RAPID CITY     FAIR      76  52  43 S23G31    30.11F
$$

  *****  SOME WEATHER IN NEARBY STATES *****

CITY           SKY/WX    TMP DP  RH WIND       PRES   REMARKS
GLASGOW MT     FAIR      92  52  25 MISG      29.93F
GREAT FALLS MT FAIR      91  37  15 VRB3      30.00F
CHEYENNE WY    FAIR      83  54  36 S14G22    30.19F
SCOTTSBLUFF NE FAIR      86  66  51 E22G29    30.07F
OMAHA NE       FAIR      84  62  47 NE10      30.03S
DES MOINES IA  FAIR      85  62  46 N13       29.98F
DAVENPORT IA   FAIR      84  71  65 N10       29.97S
CHICAGO IL     FAIR      80  60  50 NE21G26   29.94S
EAU CLAIRE WI  FAIR      83  59  44 NW10      30.03F
LA CROSSE WI   FAIR      86  64  47 NW6       30.00F
$$

  *****  SOME NATIONAL WEATHER *****

CITY           SKY/WX    TMP DP  RH WIND       PRES   REMARKS
LA GUARDIA NY  CLOUDY    76  70  82 S10       29.91F
RALEIGH NC     CLOUDY    89  70  53 W8        29.95S HX  94
ATLANTA GA     PTSUNNY   90  71  53 VRB3      29.98F HX  96
NEW ORLEANS LA FAIR      94  69  44 N8        29.99F HX  99
OKLAHOMA CITY  PTSUNNY   96  64  34 SW8       29.92F HX  98
ALBUQUERQUE NM FAIR      84  55  36 SW9       30.17F
SALT LAKE CITY FAIR      87  55  33 W8        30.12F
LOS ANGELES CA PTSUNNY   76  64  66 W15       29.92F
BOISE ID       FAIR      89  52  28 SW9       30.04F
SEATTLE WA     PTSUNNY   65  53  65 SW8       30.17F
$$

*** WEATHER ACROSS MANITOBA...SASKATCHEWAN AND ONTARIO ***
                ***ONTARIO***

CITY           SKY/WX    TMP DP  RH WIND       PRES   REMARKS
GERALDTON      MOSUNNY   75  48  38 VRB8      30.08F
THUNDER BAY    MOSUNNY   77  57  50 S12G17    30.06F
SIOUX LOOKOUT  PTSUNNY   79  54  41 N8        30.08F
TORONTO        MOSUNNY   79  68  69 VRB2      29.87F
BIG TROUT LK   PTSUNNY   73  52  46 S6        30.04F
PICKLE LAKE    PTSUNNY   79  50  36 NW6       30.08S
DRYDEN         SUNNY     81  54  39 NE6       30.09S
KENORA         PTSUNNY   81  55  41 W6        30.09F
$$
                *** MANITOBA***

CITY           SKY/WX    TMP DP  RH WIND       PRES   REMARKS
BRANDON        PTSUNNY   82  59  44 SE8G17    30.07F
DAUPHIN        SUNNY     82  63  51 E6        30.05F
ISLAND LAKE    NOT AVBL
PILOT MOUND      N/A     79  55  44 S6          N/A
THE PAS        MOSUNNY   86  54  32 SW8       29.97F
THOMPSON       PTSUNNY   86  57  37 SW8       29.92F
WINNIPEG       MOSUNNY   82  59  44 CALM      30.08
LYNN LAKE      SUNNY     86  52  30 SW7G17    29.90F
CHURCHILL      MOSUNNY   64  52  63 E20       29.94F
GILLAM         PTSUNNY   82  59  44 NW8       29.92F
$$
                ***SASKATCHEWAN***

CITY           SKY/WX    TMP DP  RH WIND       PRES   REMARKS
ESTEVAN        PTSUNNY   81  59  47 S2        30.04S
KINDERSLEY     MOSUNNY   93  45  18 S20G29    29.90F
LLOYDMINSTER   PTSUNNY   81  66  61 SE14      29.87F
PRINCE ALBERT  PTSUNNY   82  66  57 S8        29.98F
REGINA         MOSUNNY   88  52  29 SE10G18   29.99F
YORKTON        SUNNY     84  54  34 SE9       30.05F
N. BATTLEFORD  SUNNY     88  61  40 SE16G22   29.92F
LA RONGE       MOSUNNY   84  55  37 SE9       29.92F
SASKATOON      PTSUNNY   90  59  35 SE14G25   29.95F
SWIFT CURRENT  SUNNY     88  48  25 E12G22    29.96F
$$
NOTE: THESE ARE AUTOMATED STATIONS WITH LIMITED QUALITY CONTROL
      "FAIR" INDICATES FEW OR NO CLOUDS BELOW 12,000 FEET WITH NO
      SIGNIFICANT WEATHER AND/OR OBSTRUCTIONS TO VISIBILITY.
      SKY/WX - SKY CONDITION AND SIGNIFICANT WEATHER.
      TMP - AIR TEMPERATURE.    DP   - DEWPOINT TEMPERATURE.
      RH  - RELATIVE HUMIDITY.  PRES - PRESSURE.
      HX  - HEAT INDEX.         WCI  - WIND CHILL INDEX.
$




USA.gov is the U.S. government's official web portal to all federal, state and local government web resources and services.